Voltar ao catálogo

LUCH 5B

AtivoComunicaçõesGEO
NORAD 38977·PAYLOAD·🇷🇺 Russia

Lançado Nov 2, 2012 de Baikonur Cosmodrome

Loading…

TLE

AtualizadoSource: Space-Track

Época: Sep 14, 2026, 05:10 UTC

1 38977U 12061A   26257.21545071 -.00000144  00000-0  00000-0 0  9991
2 38977  10.6725  48.9745 0005938 164.6356 200.8161  1.00269868 50508

Acompanhe LUCH 5B em tempo real com AllMySat

Download on the App Store